LANDSAT 8

Last updated on Sun Dec 14 2025 00:02:32 GMT+0000 (Coordinated Universal Time)

1 39084U 13008A 25347.27440691 .00000693 00000+0 16378-3 0 9995 2 39084 98.2073 55.3400 0001088 88.9615 271.1708 14.57115114670825
UTC large
Height (km)
Speed (km/s)
/
Latitude / Longitude
Inclination (degrees)
Orbital Period (minutes)
Azimuth
Elevation
Range (km)
Doppler Factor

Next 0 passes for location: London (51.5072 / 0.1276)

Sorry there are no passes over London.